Dewpoint
-8 -6 -6 -11 -9 -11 -9 -9 -8 -7 -7 -9 -8 -8 -9 -14 -16 -16 -19 -19 -17 -15 -12 -9 -7 -6 -9 -10 -9 -8 -7 -7 -8 -8 -10 -12 -12 -11 -10 -9 -8 -7 -7 -5
-7 -6 -10 -13 -12 -13 -9 -8 -10 -9 -7 -9 -7 -7 -8 -13 -15 -15 -17 -19 -18 -16 -13 -9 -7 -6 -11 -10 -9 -8 -7 -7 -7 -8 -9 -10 -10 -10 -9 -9 -8 -8 -8 -4
-6 -8 -11 -11 -12 -13 -12 -11 -13 -13 -10 -8 -8 -8 -11 -14 -14 -15 -15 -17 -18 -16 -13 -9 -7 -8 -11 -9 -9 -7 -7 -7 -7 -8 -10 -12 -11 -10 -10 -9 -8 -8 -7 -4
-10 -13 -12 -11 -11 -14 -14 -12 -10 -9 -8 -7 -10 -7 -9 -12 -13 -17 -17 -18 -18 -16 -13 -9 -7 -9 -9 -9 -9 -7 -7 -8 -8 -9 -11 -11 -9 -9 -8 -7 -7 -9 -7 -6
-9 -10 -12 -11 -11 -15 -14 -11 -8 -8 -7 -6 -7 -6 -8 -12 -12 -13 -17 -17 -17 -16 -12 -10 -7 -9 -8 -9 -8 -7 -7 -8 -8 -10 -11 -11 -9 -8 -8 -8 -8 -9 -8 -7
-10 -12 -15 -14 -15 -15 -12 -8 -6 -4 -5 -6 -6 -6 -8 -9 -11 -13 -15 -17 -17 -16 -12 -9 -7 -9 -8 -9 -8 -7 -8 -9 -10 -10 -11 -10 -8 -8 -8 -8 -7 -8 -9 -7
-8 -9 -12 -16 -13 -13 -12 -10 -7 -11 -8 -8 -6 -7 -7 -11 -13 -14 -15 -17 -17 -16 -12 -9 -7 -9 -8 -9 -9 -8 -9 -10 -11 -11 -11 -10 -8 -7 -7 -8 -7 -7 -9 -7
-5 -7 -10 -16 -15 -14 -12 -11 -8 -12 -9 -9 -9 -9 -11 -14 -16 -17 -16 -17 -18 -15 -12 -9 -7 -9 -8 -9 -9 -8 -9 -10 -11 -12 -11 -10 -8 -7 -7 -7 -7 -6 -8 -6
-5 -5 -13 -16 -17 -14 -12 -10 -12 -9 -6 -5 -7 -9 -11 -16 -17 -17 -18 -18 -17 -15 -13 -11 -7 -10 -8 -9 -9 -8 -9 -11 -12 -13 -12 -11 -10 -8 -8 -8 -7 -7 -8 -7
-7 -8 -10 -12 -14 -15 -12 -12 -11 -7 -7 -9 -9 -10 -10 -12 -14 -16 -16 -17 -17 -16 -13 -11 -7 -10 -9 -11 -9 -9 -10 -11 -13 -14 -13 -12 -11 -9 -8 -8 -8 -8 -8 -7
-9 -9 -9 -10 -10 -11 -13 -12 -10 -9 -7 -4 -6 -8 -12 -13 -13 -15 -17 -17 -17 -17 -16 -13 -8 -9 -10 -11 -9 -9 -10 -11 -12 -13 -13 -12 -11 -10 -9 -8 -8 -8 -8 -7
-10 -9 -8 -8 -12 -12 -12 -12 -10 -2 -7 -5 -3 -6 -12 -15 -15 -15 -16 -17 -18 -17 -17 -14 -8 -9 -11 -12 -10 -9 -11 -12 -13 -13 -13 -11 -10 -10 -9 -8 -8 -8 -8 -8
-9 -8 -9 -11 -9 -9 -10 -11 -8 -6 -5 -6 -2 -6 -15 -15 -15 -14 -16 -17 -18 -18 -17 -13 -9 -9 -11 -12 -10 -9 -11 -12 -14 -13 -12 -12 -11 -10 -9 -9 -8 -8 -8 -8
-9 -8 -9 -6 -11 -7 -8 -9 -7 -8 -4 -4 -5 -8 -10 -14 -14 -15 -16 -17 -18 -19 -18 -15 -10 -9 -12 -13 -11 -9 -12 -13 -14 -13 -13 -13 -13 -12 -11 -10 -10 -9 -9 -9
-8 -7 -6 -6 -6 -6 -6 -8 -7 -7 -9 -6 -8 -7 -10 -11 -14 -15 -16 -17 -17 -18 -17 -16 -12 -10 -13 -14 -11 -9 -12 -13 -15 -14 -13 -13 -13 -12 -12 -12 -12 -11 -10 -10
-7 -8 -6 -7 -8 -5 -5 -5 -7 -8 -9 -8 -8 -8 -10 -9 -10 -14 -16 -17 -16 -16 -19 -19 -15 -10 -13 -15 -11 -9 -11 -13 -14 -15 -14 -14 -12 -12 -13 -16 -15 -14 -14 -13
-7 -6 -5 -7 -4 -4 -5 -6 -5 -8 -9 -9 -8 -10 -14 -14 -13 -13 -14 -16 -16 -15 -19 -21 -18 -12 -14 -16 -12 -10 -10 -12 -13 -14 -14 -13 -12 -14 -16 -17 -16 -15 -15 -15
-6 -6 -3 -2 -6 -3 -7 -9 -8 -7 -8 -10 -10 -10 -12 -13 -14 -14 -14 -15 -16 -16 -18 -23 -20 -13 -13 -16 -12 -10 -10 -12 -13 -12 -13 -11 -11 -16 -17 -17 -17 -17 -17 -17
-6 -3 -2 -1 -5 -6 -9 -10 -8 -7 -8 -8 -10 -10 -11 -14 -15 -15 -15 -16 -19 -21 -24 -26 -21 -14 -12 -16 -14 -11 -10 -12 -14 -12 -11 -11 -11 -15 -17 -17 -17 -17 -17 -16
-4 -5 -1 -2 -3 -3 -9 -10 -10 -10 -7 -11 -9 -9 -12 -15 -10 -10 -15 -15 -19 -22 -26 -26 -23 -15 -12 -16 -14 -12 -10 -11 -14 -14 -12 -12 -13 -14 -16 -16 -16 -16 -15 -15
-2 -2 -2 -1 -2 -4 -7 -12 -10 -9 -7 -10 -9 -9 -12 -12 -11 -17 -26 -18 -17 -27 -27 -25 -23 -15 -13 -15 -15 -13 -11 -10 -12 -14 -14 -14 -15 -16 -16 -16 -15 -15 -14 -14
-3 -0 -1 -2 -2 -3 -10 -11 -9 -8 -9 -10 -11 -10 -11 -12 -12 -14 -23 -24 -18 -25 -26 -24 -24 -19 -11 -13 -16 -15 -12 -9 -10 -12 -13 -14 -15 -16 -16 -16 -15 -15 -14 -14
-4 -3 -1 -2 -3 -7 -11 -11 -12 -12 -10 -10 -11 -11 -11 -12 -12 -13 -19 -27 -22 -25 -27 -24 -25 -22 -12 -12 -17 -16 -14 -10 -9 -9 -11 -12 -13 -14 -14 -15 -14 -14 -13 -13
-8 -7 -5 -7 -8 -7 -8 -9 -10 -11 -11 -12 -11 -12 -12 -12 -12 -13 -15 -24 -25 -25 -26 -25 -24 -23 -14 -10 -14 -18 -15 -13 -10 -9 -9 -10 -11 -12 -12 -13 -13 -13 -13 -13
-5 -7 -7 -4 -6 -8 -10 -9 -9 -9 -8 -9 -10 -11 -12 -12 -12 -13 -14 -18 -27 -26 -26 -25 -25 -25 -18 -9 -10 -16 -17 -14 -12 -11 -9 -8 -9 -10 -11 -12 -12 -12 -12 -11
-4 -6 -5 -5 -8 -8 -8 -9 -8 -8 -8 -9 -8 -9 -10 -12 -12 -13 -14 -16 -24 -27 -26 -25 -26 -26 -20 -11 -8 -12 -17 -15 -13 -12 -11 -9 -7 -8 -8 -10 -10 -10 -11 -10
Wind_Speed
4 5 0 4 4 2 2 2 3 2 4 4 6 6 6 14 13 14 13 12 9 5 5 6 7 11 13 10 10 11 13 15 18 20 21 21 21 20 19 19 20 20 22 23
5 0 2 4 3 1 2 2 3 1 2 5 1 8 5 10 11 18 16 13 11 7 5 5 6 10 10 9 9 10 12 15 18 19 20 22 18 20 21 20 21 21 21 19
4 1 3 2 2 1 1 2 1 2 1 1 6 4 1 2 4 10 13 12 11 7 5 5 6 8 6 7 8 9 12 15 17 18 18 17 16 19 20 22 23 24 19 19
2 1 2 1 1 3 2 1 1 1 3 2 3 4 2 2 5 6 12 14 12 7 5 4 6 6 5 6 7 9 11 14 16 17 18 17 20 21 21 22 23 23 19 19
1 2 1 1 1 1 1 2 2 2 2 3 1 3 4 1 6 9 17 17 13 8 6 5 5 4 4 5 5 8 11 13 14 15 17 14 16 18 19 20 22 22 21 19
2 1 1 2 2 3 3 3 5 4 3 2 0 3 4 4 6 2 11 19 14 9 8 5 5 3 3 4 6 8 10 12 12 14 15 14 14 17 20 21 22 24 22 22
1 0 1 1 3 2 4 4 4 4 4 4 2 2 8 4 5 5 14 20 15 11 9 6 6 4 4 4 5 7 9 10 11 12 13 13 12 15 18 20 22 24 22 23
3 3 2 1 1 4 2 4 4 3 2 5 0 5 3 1 3 2 9 15 13 12 10 8 6 5 4 5 4 6 8 10 10 11 11 12 12 12 15 18 19 22 20 19
4 2 1 2 1 1 3 2 3 6 1 2 3 6 2 2 3 6 11 14 15 14 12 9 7 6 6 5 4 5 7 8 9 10 10 11 11 11 14 15 17 19 19 18
3 0 0 1 3 5 1 5 3 3 1 4 5 5 5 6 9 7 12 19 17 15 14 12 9 8 7 5 4 5 6 6 7 8 9 10 11 10 12 14 16 17 18 16
4 3 0 1 5 7 1 1 5 4 3 4 2 7 6 8 8 12 23 22 20 18 16 12 10 10 7 6 5 4 5 5 6 8 8 9 10 10 11 13 14 15 16 16
2 4 3 2 1 0 1 4 5 5 4 1 3 6 3 6 5 15 19 21 19 18 16 14 12 11 9 8 5 4 4 5 5 6 7 9 9 9 11 12 13 14 15 16
5 1 2 2 2 3 3 4 4 5 3 6 5 6 2 4 6 13 17 19 20 19 20 17 16 14 11 10 7 5 4 4 4 5 6 8 9 10 11 13 14 14 14 15
5 3 6 6 4 4 4 5 5 5 4 5 7 8 6 8 9 13 19 21 21 22 22 19 18 16 13 12 10 7 6 5 5 5 5 7 9 10 12 13 14 14 15 15
3 4 4 5 6 5 5 5 9 10 6 7 5 10 6 8 12 26 27 24 24 25 25 24 20 17 15 14 12 10 9 6 6 6 6 7 9 11 12 13 14 14 14 15
2 2 3 4 1 5 6 9 12 11 4 12 3 14 9 10 11 15 27 29 30 29 28 25 22 19 18 16 14 12 10 8 7 7 6 7 8 10 11 12 13 13 14 15
4 5 3 5 3 6 7 9 12 6 6 9 10 12 6 5 10 20 27 34 34 32 29 28 25 21 19 17 15 12 11 10 8 8 7 6 7 9 10 11 12 13 13 15
6 4 2 3 3 3 6 2 5 12 8 16 8 7 9 7 10 12 21 29 31 30 30 28 25 22 20 19 18 14 12 11 10 8 7 7 7 8 9 10 11 12 13 14
3 5 1 2 3 8 5 4 7 7 9 19 21 11 12 8 3 16 21 24 23 26 27 26 22 21 21 20 18 17 15 13 11 9 8 8 8 8 8 9 10 12 13 14
4 6 4 2 3 5 5 1 6 4 6 3 22 10 13 13 2 6 10 25 24 24 25 26 24 23 23 22 21 20 17 15 12 10 9 9 9 8 9 9 11 12 14 16
2 2 5 2 3 8 7 6 8 2 7 3 14 17 25 8 14 3 6 19 23 24 27 27 26 25 23 22 22 21 19 16 12 12 11 11 10 9 9 9 11 12 13 15
8 7 4 3 1 8 10 7 7 4 5 3 6 15 24 25 12 10 7 14 24 26 29 30 28 25 24 24 23 22 21 15 16 14 13 12 12 11 10 10 10 12 13 13
3 7 6 10 7 3 20 13 14 12 10 7 7 8 14 18 20 15 12 15 22 25 29 29 28 25 26 26 24 23 18 20 18 17 15 14 13 12 12 12 11 12 13 13
4 5 3 1 5 13 25 27 31 31 23 18 11 10 12 16 17 19 17 17 21 25 28 29 29 28 27 26 25 22 21 21 20 19 17 16 15 14 14 14 14 14 14 14
3 9 5 6 12 25 29 20 15 20 26 32 29 20 16 16 18 20 21 21 21 24 26 29 30 28 26 25 25 23 23 22 21 20 19 18 17 16 15 15 15 16 15 16
9 6 5 6 11 5 14 12 21 20 25 21 23 31 26 20 19 20 22 21 22 24 25 29 30 29 26 25 25 25 25 24 22 21 20 20 19 18 17 16 15 16 17 16
Wind_Direction
28 64 262 203 172 152 130 187 240 222 167 156 217 270 222 201 200 199 200 206 218 248 293 305 323 336 337 339 341 346 352 354 352 354 356 358 1 1 0 3 358 350 347 349
25 348 182 122 117 152 169 233 265 339 135 176 175 256 255 189 214 208 206 209 218 239 281 295 317 333 338 346 345 347 352 350 353 357 356 355 359 1 7 6 2 356 354 359
151 166 147 131 79 84 163 203 239 247 36 209 330 294 297 216 194 200 217 221 219 238 271 281 310 326 337 344 347 352 353 350 354 355 354 356 1 6 7 7 5 2 2 6
118 107 168 129 111 121 315 92 95 97 50 277 26 288 288 248 233 215 209 204 217 231 253 272 303 322 335 346 349 351 350 351 354 353 355 360 4 5 5 2 3 5 3 3
257 155 158 166 142 158 201 58 60 68 92 32 1 70 261 327 262 233 215 211 218 227 233 261 292 312 329 341 345 350 350 352 353 353 357 2 6 6 1 1 4 6 8 2
95 56 57 119 88 81 132 75 50 56 76 4 149 117 272 200 213 255 205 212 214 219 220 244 269 281 299 326 342 350 349 352 354 355 359 0 2 2 3 4 4 5 6 8
27 204 67 98 103 62 76 56 342 350 10 233 140 50 247 237 222 218 202 198 203 208 214 230 248 258 277 312 331 340 346 353 355 356 358 2 1 1 1 4 4 4 5 8
181 293 165 344 99 159 129 135 145 283 299 285 317 244 255 241 157 188 187 184 195 201 212 225 236 242 260 283 310 329 343 354 355 355 356 357 1 1 3 3 6 6 5 8
150 257 8 54 123 97 158 112 164 103 25 2 251 288 265 108 172 169 178 184 198 202 213 224 232 234 252 279 295 325 340 349 349 354 356 357 359 1 5 3 359 2 4 6
170 38 274 166 115 38 142 151 75 23 104 295 291 282 248 231 224 210 211 207 207 206 211 219 224 228 245 250 269 307 329 338 345 353 356 359 360 0 1 0 1 2 3 4
133 121 254 13 205 174 108 106 54 113 111 168 304 276 209 206 198 199 216 213 210 211 213 217 222 226 240 239 254 283 311 326 337 351 355 357 359 355 358 359 0 358 359 360
192 139 189 222 315 67 165 172 147 118 224 63 142 273 190 213 208 204 209 211 211 215 213 215 221 224 231 235 247 265 293 314 328 347 352 354 355 350 351 350 354 356 356 356
186 313 4 319 358 345 221 189 111 103 92 198 140 261 200 236 226 209 198 202 207 209 210 212 217 221 226 227 231 244 269 290 311 332 346 347 345 346 345 347 348 346 347 350
132 151 182 198 208 132 197 184 178 139 129 182 226 278 208 225 218 205 202 205 208 208 212 214 218 218 222 222 224 230 248 266 286 308 328 340 346 344 349 345 343 344 348 349
131 209 185 250 236 186 218 189 183 201 192 185 242 210 240 208 207 213 206 203 205 209 211 215 218 216 219 221 223 225 234 251 272 288 315 333 339 346 351 343 345 348 347 348
347 222 157 284 145 205 254 230 205 219 236 265 297 278 208 234 224 210 206 203 209 213 215 214 216 217 218 219 222 225 231 244 262 280 300 323 338 340 344 345 350 356 354 354
157 144 111 265 352 313 290 231 190 189 210 189 205 232 168 200 212 214 205 207 214 215 215 212 214 215 215 218 220 224 233 246 257 274 294 317 330 334 343 347 353 359 0 3
139 118 101 237 2 279 248 129 177 205 228 215 260 214 195 204 214 228 219 212 215 216 215 213 213 213 212 215 216 221 227 238 251 265 284 304 319 330 341 344 352 356 359 4
91 120 75 151 201 291 279 209 161 173 279 209 222 215 201 197 254 254 225 219 219 215 212 211 211 214 214 216 216 219 225 233 243 256 275 293 308 317 333 338 345 349 353 356
69 73 121 107 158 237 243 212 193 173 297 238 203 188 164 150 213 250 222 215 207 206 208 206 207 212 215 215 218 220 222 228 234 245 262 278 290 298 306 319 329 337 344 348
89 26 176 181 241 287 244 151 155 108 242 331 204 202 176 192 209 216 198 203 206 206 199 201 209 216 217 216 220 224 225 228 229 238 251 265 274 281 291 302 313 322 330 335
168 156 191 97 114 279 155 118 180 241 315 275 210 210 208 218 224 223 214 196 198 202 201 204 210 213 214 217 222 225 230 226 231 236 244 255 266 274 281 290 300 309 315 321
235 188 184 184 211 257 193 226 233 270 306 304 268 247 231 231 228 224 220 204 202 205 207 208 212 214 217 220 223 226 228 232 235 238 243 250 257 268 276 283 290 297 305 312
241 172 217 105 246 246 260 254 259 265 267 269 281 273 249 242 232 227 222 213 208 208 210 212 213 217 221 223 225 227 227 234 238 241 244 253 259 267 276 284 292 297 302 306
196 153 184 260 284 283 283 291 308 289 276 263 259 263 262 250 242 232 227 222 218 216 214 215 218 222 226 226 229 228 228 234 239 243 246 251 259 268 273 281 290 298 303 304
195 188 180 227 248 240 291 312 322 324 324 321 270 256 254 253 250 242 233 228 224 220 218 219 221 225 226 228 230 229 231 235 239 243 247 252 258 264 272 279 284 294 303 303
Height
1536 1542 1547 1544 1547 1547 1550 1553 1554 1553 1555 1558 1560 1559 1557 1558 1560 1561 1563 1565 1564 1566 1566 1565 1564 1562 1560 1559 1558 1555 1553 1550 1546 1542 1539 1535 1531 1528 1524 1521 1517 1512 1508 1504
1542 1546 1543 1544 1545 1547 1550 1552 1553 1554 1555 1559 1558 1557 1555 1556 1556 1557 1560 1561 1562 1564 1564 1564 1563 1561 1559 1558 1556 1554 1552 1549 1546 1542 1538 1534 1531 1527 1523 1520 1516 1511 1507 1502
1543 1544 1543 1543 1547 1547 1551 1551 1552 1554 1556 1557 1557 1556 1555 1555 1555 1557 1557 1559 1561 1563 1562 1563 1561 1559 1558 1557 1556 1554 1551 1548 1545 1542 1539 1535 1532 1528 1524 1520 1515 1510 1506 1502
1542 1542 1543 1545 1546 1548 1550 1551 1552 1553 1559 1562 1559 1558 1553 1555 1555 1555 1555 1556 1558 1560 1560 1560 1560 1559 1557 1556 1555 1552 1550 1547 1545 1541 1538 1534 1530 1526 1522 1518 1515 1511 1506 1502
1542 1543 1544 1545 1546 1547 1551 1551 1553 1554 1561 1563 1561 1569 1551 1556 1554 1551 1551 1553 1556 1558 1558 1558 1558 1557 1557 1555 1553 1551 1549 1547 1544 1540 1537 1534 1531 1527 1524 1520 1516 1511 1506 1502
1544 1544 1544 1545 1547 1548 1551 1553 1558 1564 1568 1563 1560 1564 1550 1556 1547 1543 1545 1549 1553 1555 1555 1556 1555 1556 1554 1553 1552 1551 1549 1546 1543 1540 1537 1534 1531 1527 1523 1519 1515 1510 1506 1502
1545 1546 1545 1545 1547 1549 1552 1559 1564 1552 1562 1557 1564 1566 1544 1539 1541 1540 1541 1545 1549 1550 1552 1554 1552 1554 1554 1553 1551 1548 1546 1544 1542 1540 1537 1534 1531 1528 1524 1520 1516 1511 1507 1502
1551 1548 1546 1546 1546 1547 1551 1556 1566 1549 1563 1565 1562 1559 1536 1539 1539 1539 1538 1544 1546 1548 1549 1549 1550 1552 1551 1549 1548 1546 1544 1544 1542 1539 1536 1533 1531 1528 1525 1521 1517 1512 1507 1503
1548 1544 1547 1546 1547 1549 1553 1557 1559 1572 1578 1575 1558 1546 1538 1539 1540 1540 1539 1543 1543 1545 1546 1548 1548 1549 1549 1548 1547 1546 1544 1542 1540 1537 1534 1532 1530 1528 1524 1520 1516 1512 1508 1504
1537 1542 1548 1549 1548 1550 1549 1555 1558 1570 1567 1552 1555 1552 1541 1537 1536 1538 1537 1538 1539 1542 1542 1543 1544 1545 1545 1544 1544 1543 1542 1541 1538 1536 1535 1532 1529 1526 1522 1519 1517 1512 1508 1504
1535 1541 1549 1551 1549 1549 1556 1557 1566 1570 1576 1581 1572 1541 1525 1523 1525 1528 1528 1532 1534 1536 1538 1540 1541 1542 1543 1542 1541 1541 1541 1539 1537 1537 1534 1532 1530 1525 1522 1519 1516 1511 1507 1504
1535 1544 1547 1544 1548 1546 1545 1547 1553 1569 1571 1596 1597 1550 1518 1519 1520 1521 1524 1526 1529 1533 1535 1537 1539 1540 1540 1539 1540 1540 1540 1539 1536 1535 1532 1530 1527 1524 1522 1518 1515 1512 1508 1504
1534 1544 1549 1541 1550 1549 1546 1547 1553 1562 1572 1581 1579 1538 1518 1518 1518 1518 1520 1522 1525 1529 1531 1533 1534 1536 1537 1536 1537 1538 1538 1536 1534 1533 1531 1529 1527 1524 1521 1518 1515 1510 1507 1503
1531 1542 1540 1545 1531 1540 1543 1545 1550 1549 1575 1566 1551 1522 1517 1515 1515 1514 1516 1518 1520 1523 1526 1529 1530 1532 1532 1533 1533 1535 1535 1533 1531 1531 1529 1526 1525 1522 1520 1517 1513 1510 1507 1504
1532 1537 1541 1534 1532 1532 1530 1534 1545 1546 1536 1532 1519 1526 1501 1504 1505 1504 1508 1513 1515 1518 1520 1523 1525 1527 1529 1530 1531 1531 1531 1531 1530 1529 1528 1527 1525 1522 1520 1515 1512 1510 1505 1503
1533 1534 1536 1530 1528 1533 1531 1528 1532 1532 1530 1530 1524 1514 1493 1494 1496 1498 1501 1505 1507 1510 1513 1516 1520 1523 1524 1526 1527 1528 1529 1529 1528 1528 1527 1526 1524 1521 1518 1515 1512 1509 1506 1503
1535 1536 1541 1533 1533 1531 1524 1511 1516 1519 1516 1509 1515 1488 1490 1492 1491 1491 1493 1496 1498 1502 1506 1510 1513 1517 1520 1522 1524 1525 1527 1527 1527 1526 1526 1525 1523 1520 1518 1516 1513 1510 1506 1503
1533 1537 1547 1547 1531 1535 1496 1497 1497 1500 1495 1496 1489 1484 1484 1484 1484 1485 1487 1488 1491 1495 1500 1504 1508 1512 1515 1518 1520 1521 1523 1524 1524 1524 1524 1523 1522 1520 1518 1516 1513 1510 1507 1504
1524 1535 1553 1543 1540 1514 1485 1496 1498 1499 1480 1472 1475 1475 1480 1483 1484 1480 1480 1482 1485 1489 1494 1500 1504 1508 1511 1514 1516 1518 1519 1521 1521 1522 1522 1522 1522 1520 1518 1516 1513 1510 1507 1504
1529 1530 1541 1559 1541 1520 1490 1487 1488 1490 1492 1461 1465 1469 1476 1482 1490 1473 1471 1476 1480 1485 1490 1495 1499 1503 1506 1509 1511 1513 1515 1516 1517 1519 1519 1519 1519 1518 1516 1514 1512 1510 1507 1503
1537 1544 1543 1549 1543 1512 1486 1485 1489 1493 1486 1461 1462 1466 1472 1475 1469 1470 1470 1472 1478 1482 1485 1490 1494 1498 1502 1505 1507 1509 1511 1513 1515 1515 1515 1514 1513 1513 1511 1510 1508 1506 1505 1502
1518 1530 1540 1547 1542 1514 1480 1487 1491 1473 1464 1463 1462 1463 1464 1465 1467 1469 1469 1470 1473 1477 1481 1485 1489 1493 1497 1500 1502 1506 1508 1511 1510 1510 1511 1511 1510 1509 1508 1506 1505 1503 1502 1501
1511 1499 1508 1506 1495 1475 1474 1469 1468 1467 1467 1465 1463 1462 1462 1464 1465 1467 1468 1469 1471 1474 1478 1482 1485 1489 1492 1495 1498 1501 1505 1506 1507 1507 1507 1507 1506 1506 1505 1503 1501 1500 1499 1498
1494 1491 1495 1493 1471 1470 1469 1469 1466 1466 1463 1464 1463 1462 1461 1460 1461 1464 1466 1467 1469 1470 1473 1478 1482 1484 1486 1490 1493 1496 1499 1501 1503 1503 1504 1505 1504 1504 1503 1502 1501 1500 1498 1496
1487 1487 1485 1485 1471 1466 1463 1461 1461 1460 1459 1458 1459 1459 1458 1459 1458 1459 1460 1463 1465 1468 1470 1473 1476 1479 1482 1485 1488 1492 1494 1495 1498 1499 1500 1501 1501 1501 1500 1499 1499 1498 1497 1494
1479 1475 1478 1473 1463 1464 1461 1459 1457 1457 1455 1453 1452 1453 1455 1455 1455 1456 1457 1458 1461 1463 1465 1468 1471 1474 1477 1480 1483 1485 1488 1490 1492 1494 1495 1496 1497 1497 1497 1496 1496 1494 1493 1492